KF8LO-1 Weather Reports


time (UTC)temp
C
wind
direction
speed
KPH
gust
KPH
rain 1hr
cm
rain 24hr
cm
rain mn
cm
humidity
%
barometer
mb
20260508043955 5 310 9.7 12.9 0.00 0.20 0.00 63
20260508043455 5 323 6.4 12.9 0.00 0.20 0.00 62
20260508042955 5 307 4.8 16.1 0.00 0.20 0.00 62
20260508042455 5 282 6.4 17.7 0.00 0.20 0.00 61
20260508041955 5 268 6.4 16.1 0.00 0.20 0.00 61
20260508041455 5 295 4.8 14.5 0.00 0.20 0.00 61
20260508040955 5 305 9.7 17.7 0.00 0.20 0.00 61
20260508040455 5 315 6.4 16.1 0.00 0.20 0.00 61
20260508035955 5 298 11.3 16.1 0.00 0.20 0.00 61
20260508035455 5 292 11.3 16.1 0.00 0.20 0.00 60
20260508034955 5 312 8.0 16.1 0.00 0.20 0.00 60
20260508034455 5 300 6.4 17.7 0.00 0.25 0.00 60
20260508033955 5 319 12.9 16.1 0.00 0.25 0.00 60
20260508033455 6 322 6.4 19.3 0.00 0.25 0.00 59
20260508032955 6 295 19.3 19.3 0.00 0.25 0.00 59
20260508032455 6 312 9.7 16.1 0.00 0.25 0.00 58
20260508031955 6 322 11.3 19.3 0.00 0.25 0.00 58
20260508031455 6 296 14.5 17.7 0.00 0.25 0.00 58
20260508030955 6 302 12.9 19.3 0.00 0.25 0.00 58
20260508030455 6 299 8.0 16.1 0.00 0.25 0.00 58
20260508025955 6 310 11.3 22.5 0.00 0.25 0.00 56
20260508025455 6 295 12.9 19.3 0.00 0.25 0.00 56
20260508024955 6 312 11.3 19.3 0.00 0.25 0.00 56
20260508024455 6 277 14.5 20.9 0.00 0.33 0.00 56
20260508023955 6 316 14.5 20.9 0.00 0.33 0.00 56
20260508023455 6 293 11.3 16.1 0.00 0.33 0.00 55
20260508022955 7 315 9.7 20.9 0.00 0.33 0.00 56
20260508022455 6 299 6.4 20.9 0.00 0.33 0.00 55
20260508021955 7 313 8.0 19.3 0.00 0.33 0.00 55
20260508021455 7 300 12.9 19.3 0.00 0.33 0.00 55
20260508020955 7 288 4.8 14.5 0.00 0.33 0.00 55
20260508020455 7 284 9.7 14.5 0.00 0.33 0.00 54
20260508015955 7 267 12.9 17.7 0.00 0.33 0.00 55
20260508015455 8 270 8.0 12.9 0.00 0.33 0.00 55
20260508014955 8 302 9.7 14.5 0.00 0.33 0.00 55
20260508014455 8 292 8.0 16.1 0.00 0.36 0.00 55
20260508013955 8 289 8.0 16.1 0.00 0.36 0.00 55
20260508013455 8 292 11.3 16.1 0.00 0.36 0.00 54
20260508012955 8 265 6.4 19.3 0.00 0.36 0.00 55
20260508012455 8 300 6.4 19.3 0.00 0.36 0.00 55
20260508011955 8 277 9.7 16.1 0.00 0.36 0.00 54
20260508011455 8 303 3.2 14.5 0.00 0.36 0.00 55
20260508010955 8 291 6.4 14.5 0.00 0.36 0.00 55
20260508010455 8 254 11.3 25.7 0.00 0.36 0.00 54
20260508005955 8 278 8.0 16.1 0.00 0.36 0.00 55
20260508005455 8 270 6.4 14.5 0.00 0.36 0.00 54
20260508004955 8 279 9.7 14.5 0.00 0.36 0.00 54
20260508004455 9 299 3.2 17.7 0.00 0.51 0.00 53
20260508003955 9 288 3.2 14.5 0.00 0.51 0.00 54
20260508003455 9 282 9.7 16.1 0.00 0.51 0.00 54
20260508002955 9 267 4.8 16.1 0.00 0.51 0.00 53
20260508002456 9 275 4.8 14.5 0.00 0.51 0.00 52
20260508001956 9 303 1.6 20.9 0.00 0.51 0.00 52
20260508001456 9 250 12.9 16.1 0.00 0.51 0.00 51
20260508000956 10 291 11.3 17.7 0.00 0.51 0.00 51
20260508000457 10 291 11.3 19.3 0.00 0.51 0.00 52
20260507235956 10 299 11.3 22.5 0.00 0.51 0.00 51
20260507235456 10 315 8.0 19.3 0.00 0.51 0.00 50
20260507234956 10 313 3.2 19.3 0.00 0.51 0.00 50
20260507234456 10 244 11.3 19.3 0.00 0.53 0.00 49
20260507233956 10 284 3.2 22.5 0.00 0.53 0.00 49
20260507233456 10 348 9.7 25.7 0.00 0.53 0.00 49
20260507232956 10 295 14.5 30.6 0.00 0.53 0.00 49
20260507232456 10 338 4.8 20.9 0.00 0.53 0.00 50
20260507231956 10 312 6.4 22.5 0.00 0.53 0.00 51
20260507231456 10 267 9.7 25.7 0.00 0.53 0.00 50
20260507230956 10 291 14.5 27.4 0.00 0.53 0.00 49
20260507230456 10 291 8.0 19.3 0.00 0.53 0.00 49
20260507225956 10 271 8.0 19.3 0.00 0.53 0.00 49
20260507225456 10 307 12.9 25.7 0.00 0.53 0.00 49
20260507224956 11 309 6.4 29.0 0.00 0.53 0.00 47
20260507224456 11 229 6.4 24.1 0.00 0.58 0.00 50
20260507223956 11 289 11.3 29.0 0.00 0.58 0.00 49
20260507223456 11 300 9.7 32.2 0.00 0.58 0.00 48
20260507222956 11 282 12.9 25.7 0.00 0.58 0.00 48
20260507222456 11 344 8.0 24.1 0.00 0.58 0.00 49
20260507221956 11 312 11.3 25.7 0.00 0.58 0.00 49
20260507221456 11 296 22.5 29.0 0.00 0.58 0.00 50
20260507220956 11 351 12.9 25.7 0.00 0.58 0.00 47
20260507220456 11 291 11.3 22.5 0.00 0.58 0.00 50
20260507215956 11 296 4.8 20.9 0.00 0.58 0.00 51
20260507215456 11 289 9.7 20.9 0.00 0.58 0.00 50
20260507214956 11 300 8.0 27.4 0.00 0.58 0.00 50
20260507214456 11 292 6.4 29.0 0.00 0.66 0.00 50
20260507213956 11 289 14.5 32.2 0.00 0.66 0.00 49
20260507213456 11 296 8.0 29.0 0.00 0.66 0.00 50
20260507212956 11 300 12.9 32.2 0.00 0.66 0.00 49
20260507212456 11 307 8.0 22.5 0.00 0.66 0.00 48
20260507211956 11 312 3.2 17.7 0.00 0.66 0.00 51
20260507211456 11 324 8.0 22.5 0.00 0.66 0.00 52
20260507210956 11 299 12.9 24.1 0.00 0.66 0.00 51
20260507210456 11 334 14.5 20.9 0.00 0.66 0.00 51
20260507205956 11 286 14.5 24.1 0.00 0.66 0.00 51
20260507205456 11 282 11.3 30.6 0.00 0.66 0.00 51
20260507204956 11 227 4.8 24.1 0.00 0.66 0.00 52
20260507204456 11 347 8.0 22.5 0.00 0.71 0.00 52
20260507203956 11 303 17.7 25.7 0.00 0.71 0.00 53
20260507203456 11 288 16.1 24.1 0.00 0.71 0.00 53
20260507202956 11 270 11.3 27.4 0.00 0.71 0.00 54
20260507202456 10 274 22.5 22.5 0.00 0.71 0.00 55
20260507201956 10 285 14.5 30.6 0.00 0.71 0.00 54
20260507201456 10 305 8.0 25.7 0.00 0.71 0.00 53
20260507200956 10 296 11.3 22.5 0.00 0.71 0.00 55
20260507200456 10 293 12.9 30.6 0.00 0.71 0.00 55
20260507195956 10 292 11.3 25.7 0.00 0.71 0.00 55
20260507195456 10 317 6.4 25.7 0.00 0.71 0.00 55
20260507194956 10 310 12.9 27.4 0.00 0.71 0.00 56
20260507194456 10 316 16.1 25.7 0.00 0.76 0.00 54
20260507193956 10 299 4.8 22.5 0.00 0.76 0.00 57
20260507193456 10 312 6.4 25.7 0.00 0.76 0.00 56
20260507192956 11 11 9.7 20.9 0.00 0.76 0.00 56
20260507192456 10 293 11.3 22.5 0.00 0.76 0.00 56
20260507191956 11 278 9.7 27.4 0.00 0.76 0.00 58
20260507191456 10 303 8.0 27.4 0.00 0.76 0.00 57
20260507190956 11 315 9.7 22.5 0.00 0.76 0.00 57
20260507190456 11 329 8.0 24.1 0.00 0.76 0.00 55
20260507185957 11 307 12.9 20.9 0.00 0.76 0.00 55
20260507185456 11 302 6.4 24.1 0.00 0.76 0.00 61
20260507184957 11 337 4.8 19.3 0.00 0.76 0.00 60
20260507184457 11 334 9.7 22.5 0.00 0.84 0.00 61
20260507183957 11 319 11.3 25.7 0.00 0.84 0.00 60
20260507183457 11 313 11.3 19.3 0.00 0.84 0.00 59
20260507182957 10 282 6.4 27.4 0.00 0.84 0.00 62
20260507182457 10 303 3.2 22.5 0.00 0.84 0.00 65
20260507181957 10 303 12.9 24.1 0.00 0.84 0.00 61
20260507181457 11 298 4.8 27.4 0.00 0.84 0.00 60
20260507180957 10 307 9.7 24.1 0.00 0.84 0.00 60
20260507180457 10 347 17.7 24.1 0.00 0.84 0.00 58
20260507175957 10 327 19.3 29.0 0.00 0.84 0.00 61
20260507175457 10 307 8.0 22.5 0.00 0.84 0.00 64
20260507174957 10 316 9.7 24.1 0.00 0.84 0.00 63
20260507174457 10 306 12.9 14.5 0.00 0.91 0.00 64
20260507173957 10 264 8.0 16.1 0.00 0.91 0.00 62
20260507173457 10 343 9.7 20.9 0.00 0.91 0.00 64
20260507172957 10 261 14.5 16.1 0.00 0.91 0.00 63
20260507172457 10 300 12.9 22.5 0.00 0.91 0.00 64
20260507171957 10 299 4.8 20.9 0.00 0.91 0.00 66
20260507171457 10 264 9.7 16.1 0.00 0.91 0.00 66
20260507170957 9 253 8.0 25.7 0.00 0.91 0.00 66
20260507170457 9 310 6.4 20.9 0.00 0.91 0.00 65
20260507165957 9 258 11.3 24.1 0.00 0.91 0.00 67
20260507165457 8 334 1.6 16.1 0.00 0.91 0.00 65
20260507164957 9 303 8.0 20.9 0.00 0.91 0.00 64
20260507164457 10 258 6.4 17.7 0.00 1.04 0.00 66
20260507163957 10 310 11.3 24.1 0.00 1.04 0.00 67
20260507163457 9 289 8.0 16.1 0.00 1.04 0.00 71
20260507162957 8 333 3.2 20.9 0.00 1.04 0.00 67
20260507162457 9 240 16.1 16.1 0.00 1.04 0.00 69
20260507161957 8 289 6.4 16.1 0.00 1.04 0.00 69
20260507161457 8 350 11.3 17.7 0.00 1.04 0.00 70
20260507160957 8 354 8.0 16.1 0.00 1.04 0.00 71
20260507160457 8 293 6.4 14.5 0.00 1.04 0.00 71
20260507155957 9 351 6.4 19.3 0.00 1.04 0.00 71
20260507155457 8 262 1.6 14.5 0.00 1.04 0.00 70
20260507154957 8 268 9.7 17.7 0.00 1.04 0.00 74
20260507154457 8 284 17.7 17.7 0.00 1.12 0.00 72
20260507153957 8 326 6.4 8.0 0.00 1.12 0.00 74
20260507153457 8 305 3.2 14.5 0.00 1.12 0.00 74
20260507152957 8 306 14.5 19.3 0.00 1.12 0.00 74
20260507152457 8 316 6.4 17.7 0.00 1.12 0.00 72
20260507151957 8 298 4.8 17.7 0.00 1.12 0.00 78
20260507151457 7 264 4.8 9.7 0.00 1.12 0.00 79
20260507150958 7 316 4.8 14.5 0.00 1.12 0.00 79
20260507150457 7 338 1.6 9.7 0.00 1.12 1.14 82
20260507145957 7 334 3.2 14.5 0.00 1.12 1.14 80
20260507145457 6 296 3.2 16.1 0.00 1.12 1.14 78
20260507144957 7 305 4.8 14.5 0.00 1.12 1.14 81
20260507144457 7 296 3.2 11.3 0.00 1.14 1.14 81
20260507143957 7 307 9.7 12.9 0.00 1.14 1.14 80
20260507143457 7 240 1.6 11.3 0.00 1.14 1.14 83
20260507142957 7 261 4.8 14.5 0.00 1.14 1.14 84
20260507142457 7 296 3.2 14.5 0.00 1.14 1.14 84
20260507141957 7 333 1.6 17.7 0.00 1.14 1.14 84
20260507141457 6 303 4.8 8.0 0.00 1.14 1.14 88
20260507140957 6 292 3.2 9.7 0.00 1.14 1.14 88
20260507140457 6 305 3.2 9.7 0.00 1.14 1.14 87
20260507135957 7 299 4.8 8.0 0.00 1.14 1.14 89
20260507135457 7 270 6.4 12.9 0.00 1.14 1.14 88
20260507134957 7 295 8.0 12.9 0.00 1.14 1.14 90
20260507134457 6 313 4.8 9.7 0.00 1.17 1.14 91
20260507133957 6 300 3.2 8.0 0.00 1.17 1.14 91
20260507133458 6 293 4.8 6.4 0.00 1.17 1.14 92
20260507132957 6 292 4.8 8.0 0.00 1.17 1.14 91
20260507132458 6 312 0.0 8.0 0.00 1.17 1.14 91
20260507131958 6 307 6.4 6.4 0.00 1.17 1.14 92
20260507131458 6 324 3.2 6.4 0.00 1.17 1.14 93
20260507130958 6 265 4.8 9.7 0.00 1.17 1.14 92
20260507130458 6 274 1.6 8.0 0.00 1.17 1.14 93
20260507125958 6 293 4.8 6.4 0.00 1.17 1.14 93
20260507125458 6 303 3.2 8.0 0.00 1.17 1.14 93
20260507124958 6 317 4.8 8.0 0.00 1.17 1.14 93
20260507124458 6 284 3.2 11.3 0.00 1.22 1.14 93
20260507123958 6 284 1.6 11.3 0.00 1.22 1.14 93
20260507123458 6 315 3.2 4.8 0.00 1.22 1.14 94
20260507122958 6 255 0.0 8.0 0.00 1.22 1.14 94
20260507122458 6 299 3.2 11.3 0.00 1.22 1.14 94
20260507121958 6 293 3.2 9.7 0.00 1.22 1.14 94
20260507121458 5 331 8.0 9.7 0.00 1.22 1.14 94
20260507120958 6 303 6.4 12.9 0.00 1.22 1.14 93
20260507120458 6 323 4.8 9.7 0.00 1.22 1.14 94
20260507115958 6 292 4.8 11.3 0.00 1.22 1.14 93
20260507115458 5 310 8.0 8.0 0.00 1.22 1.14 93
20260507114958 6 300 4.8 8.0 0.00 1.22 1.14 94
20260507114458 5 324 0.0 6.4 0.00 1.52 1.14 94
20260507113958 5 319 4.8 8.0 0.00 1.52 1.14 94
20260507113458 5 299 3.2 9.7 0.00 1.52 1.14 94
20260507112958 5 289 0.0 4.8 0.00 1.52 1.14 94
20260507112458 5 255 0.0 9.7 0.00 1.52 1.14 94
20260507111958 5 265 3.2 8.0 0.00 1.52 1.14 95
20260507111459 5 303 1.6 8.0 0.00 1.52 1.14 94
20260507110958 5 300 3.2 4.8 0.00 1.52 1.14 95
20260507110458 5 306 4.8 12.9 0.00 1.52 1.14 95
20260507105958 5 305 4.8 11.3 0.00 1.52 1.14 95
20260507105458 5 302 4.8 9.7 0.00 1.52 1.14 95
20260507104958 5 298 4.8 14.5 0.00 1.52 1.14 95
20260507104458 5 270 8.0 14.5 0.00 1.88 1.14 95
20260507103958 5 312 8.0 12.9 0.00 1.88 1.14 95
20260507103458 5 310 8.0 14.5 0.00 1.88 1.14 95
20260507102958 5 303 8.0 11.3 0.00 1.88 1.14 95
20260507102458 5 299 9.7 12.9 0.00 1.88 1.14 95
20260507101958 5 296 8.0 11.3 0.00 1.88 1.14 95
20260507101458 5 313 6.4 11.3 0.00 1.88 1.14 95
20260507100958 5 305 9.7 11.3 0.00 1.88 1.14 95
20260507100458 5 310 8.0 11.3 0.00 1.88 1.14 95
20260507095958 5 306 11.3 11.3 0.03 1.88 1.14 95
20260507095458 5 305 9.7 16.1 0.03 1.88 1.14 95
20260507094958 5 305 11.3 16.1 0.03 1.88 1.14 95
20260507094458 5 303 8.0 17.7 0.03 2.34 1.14 96
20260507093958 5 315 11.3 19.3 0.03 2.34 1.14 96
20260507093458 5 307 14.5 17.7 0.05 2.34 1.14 96
20260507092958 5 302 11.3 19.3 0.05 2.34 1.14 96
20260507092458 5 312 11.3 20.9 0.08 2.34 1.14 96
20260507091958 5 309 11.3 22.5 0.08 2.34 1.14 96
20260507091458 5 302 11.3 16.1 0.08 2.34 1.14 96
20260507090958 5 327 9.7 16.1 0.10 2.34 1.14 95
20260507090458 5 316 9.7 17.7 0.10 2.34 1.14 95
20260507085958 5 333 11.3 16.1 0.08 2.31 1.12 95
20260507085458 5 337 9.7 20.9 0.10 2.31 1.12 94
20260507084958 6 317 8.0 17.7 0.10 2.31 1.12 94
20260507084458 6 312 8.0 12.9 0.10 2.49 1.12 94
20260507083958 6 344 9.7 16.1 0.10 2.49 1.12 95
20260507083458 6 324 9.7 14.5 0.08 2.46 1.09 95
20260507082958 6 333 9.7 11.3 0.08 2.46 1.09 94
20260507082458 6 330 1.6 8.0 0.08 2.44 1.07 94
20260507081958 6 330 3.2 9.7 0.08 2.44 1.07 94
20260507081458 7 326 3.2 11.3 0.08 2.44 1.07 94
20260507080958 7 354 8.0 11.3 0.05 2.41 1.04 93
20260507080458 7 309 1.6 9.7 0.05 2.41 1.04 93
20260507075958 7 222 4.8 8.0 0.05 2.41 1.04 93
20260507075459 7 274 4.8 11.3 0.03 2.39 1.02 94
20260507074959 7 300 3.2 8.0 0.03 2.39 1.02 94
20260507074459 7 272 0.0 8.0 0.03 2.41 1.02 93
20260507073959 7 296 0.0 3.2 0.03 2.41 1.02 94
20260507073459 7 215 0.0 3.2 0.03 2.41 1.02 93
20260507072959 7 258 0.0 1.6 0.03 2.41 1.02 94
20260507072459 7 315 0.0 6.4 0.03 2.39 0.99 94
20260507071959 7 254 0.0 3.2 0.03 2.39 0.99 94
20260507071459 7 288 1.6 3.2 0.03 2.39 0.99 94
20260507070959 7 299 1.6 4.8 0.03 2.39 0.99 94
20260507070459 6 310 3.2 6.4 0.03 2.39 0.99 94
20260507065959 6 293 1.6 6.4 0.03 2.39 0.99 94
20260507065459 6 317 1.6 6.4 0.03 2.39 0.99 94
20260507064959 6 331 1.6 6.4 0.03 2.39 0.99 94
20260507064459 6 302 0.0 4.8 0.03 2.39 0.99 94
20260507063959 6 248 0.0 4.8 0.03 2.39 0.99 94
20260507063459 6 323 0.0 3.2 0.03 2.39 0.99 94
20260507062959 6 316 0.0 8.0 0.03 2.39 0.99 94
20260507062459 6 292 4.8 9.7 0.00 2.36 0.97 94
20260507061959 6 327 3.2 6.4 0.00 2.36 0.97 94
20260507061459 6 277 3.2 6.4 0.00 2.36 0.97 95
20260507060959 6 320 1.6 11.3 0.00 2.36 0.97 95
20260507060459 6 303 6.4 11.3 0.03 2.36 0.97 94
20260507055959 6 306 4.8 11.3 0.03 2.36 0.97 94
20260507055459 6 302 4.8 6.4 0.03 2.36 0.97 95
20260507054959 6 310 6.4 14.5 0.03 2.36 0.97 95
20260507054459 6 331 4.8 11.3 0.03 2.36 0.97 94
20260507053959 6 323 4.8 11.3 0.03 2.36 0.97 95
20260507053459 6 324 6.4 16.1 0.03 2.36 0.97 95
20260507052959 6 329 6.4 12.9 0.05 2.36 0.97 95
20260507052500 6 296 9.7 14.5 0.05 2.36 0.97 95
20260507051959 6 316 11.3 16.1 0.05 2.36 0.97 95
20260507051459 6 327 14.5 22.5 0.05 2.36 0.97 95
20260507050959 6 289 14.5 20.9 0.05 2.36 0.97 96
20260507050459 6 320 17.7 20.9 0.03 2.34 0.94 96
20260507045959 6 9 4.8 17.7 0.03 2.34 0.94 96
20260507045459 6 324 4.8 17.7 0.03 2.34 0.94 95
20260507044959 6 326 17.7 17.7 0.03 2.34 0.94 96
20260507044459 6 307 6.4 17.7 0.05 2.34 0.94 95